STARLINK-36071

Last updated on Mon Dec 15 2025 00:02:11 GMT+0000 (Coordinated Universal Time)

1 66808U 25278T 25348.25003472 -.01323682 00000+0 -68904-2 0 9992 2 66808 42.9972 242.7395 0001872 278.7888 133.6737 15.82820449 3209
UTC large
Height (km)
Speed (km/s)
/
Latitude / Longitude
Inclination (degrees)
Orbital Period (minutes)
Azimuth
Elevation
Range (km)
Doppler Factor

Next 0 passes for location: London (51.5072 / 0.1276)

Sorry there are no passes over London.